Regional Weather Roundup
Issued by NWS

Home | Current Version | Previous Version | Text Only | Print | Product List | Glossary On
Versions: 1 2 3 4 5 6 7 8 9 10 11 12 13 14 15 16 17 18 19 20 21 22 23 24 25 26 27 28 29 30 31 32 33 34 35 36 37 38 39 40 41 42 43
000
ASUS46 KSEW 220010
RWRWA

WASHINGTON REGIONAL WEATHER ROUNDUP
NATIONAL WEATHER SERVICE SEATTLE WA
500 PM PDT TUE OCT 21 2014

NOTE:"FAIR" INDICATES FEW OR NO CLOUDS BELOW 12,000 FEET WITH NO
SIGNIFICANT WEATHER AND/OR OBSTRUCTIONS TO VISIBILITY.

WAZ505-507>509-220100-
SEATTLE, TACOMA, EVERETT, AND VICINITY

CITY           SKY/WX    TMP DP  RH WIND       PRES   REMARKS
EVERETT        CLOUDY    58  47  66 SE12G21   29.88F
6HR MIN TEMP:  56; 6HR MAX TEMP:  60; 6HR PCP:  0.01;

BOEING FIELD   CLOUDY    61  50  67 SE8       29.88F
6HR MIN TEMP:  60; 6HR MAX TEMP:  64; 6HR PCP: TRACE;

RENTON         CLOUDY    59  51  75 SE7       29.88F
6HR MIN TEMP:  57; 6HR MAX TEMP:  63; 6HR PCP:  0.01;

SEATAC AIRPORT PTSUNNY   59  49  69 S9        29.89F
6HR MIN TEMP:  57; 6HR MAX TEMP:  61; 6HR PCP:  0.01;

JBLM-MCCHORD   CLOUDY    61  49  64 S16       29.89F
6HR MIN TEMP:  58; 6HR MAX TEMP:  64; 6HR PCP: TRACE;

PUYALLUP       NOT AVBL
JBLM-FT LEWIS  CLOUDY    60  49  66 SE13      29.88F
6HR MIN TEMP:  57; 6HR MAX TEMP:  63; 6HR PCP: TRACE;

TACOMA NARROWS PTSUNNY   60  48  64 S16G24    29.88F
6HR MIN TEMP:  56; 6HR MAX TEMP:  62; 6HR PCP: TRACE;

$$

WAZ001-503-506-510-514-515-220100-
NORTH INTERIOR

CITY           SKY/WX    TMP DP  RH WIND       PRES   REMARKS
BELLINGHAM     CLOUDY    61  48  62 SE15G24   29.81F
6HR MIN TEMP:  58; 6HR MAX TEMP:  63;

FRIDAY HARBOR  PTSUNNY   57  50  77 SE16      29.80F
6HR MIN TEMP:  56; 6HR MAX TEMP:  60;

EASTSOUND      MOCLDY    59  50  72 S8        29.78F
PORT ANGELES   LGT RAIN  58  51  78 SW6       29.77F
6HR MIN TEMP:  57; 6HR MAX TEMP:  63; 6HR PCP: TRACE;

NAS WHIDBEY    MOCLDY    62  49  62 SE29G37   29.81F
6HR MIN TEMP:  59; 6HR MAX TEMP:  65;

BURLINGTON     PTCLDY   N/A N/A N/A SE13G22   29.84F
$$

WAZ020-022-039-040-504-511-512-220100-
SOUTHWEST INTERIOR

CITY           SKY/WX    TMP DP  RH WIND       PRES   REMARKS
SHELTON        CLOUDY    58  51  78 S9        29.85S
6HR MIN TEMP:  55; 6HR MAX TEMP:  61; 6HR PCP:  0.07;

OLYMPIA        CLOUDY    59  50  72 S22       29.88F
6HR MIN TEMP:  56; 6HR MAX TEMP:  60; 6HR PCP:  0.01;

CHEHALIS       CLOUDY    61  54  77 S14G24    29.89F
KELSO          CLOUDY    61  48  63 S9G16     29.96S
6HR MIN TEMP:  55; 6HR MAX TEMP:  63;

VANCOUVER      CLOUDY    60  49  66 SE8       29.95F
6HR MIN TEMP:  57; 6HR MAX TEMP:  61;

SCAPPOOSE, OR  CLOUDY    58  52  80 S5        29.94F
6HR MIN TEMP:  56; 6HR MAX TEMP:  60; 6HR PCP:  0.01;

PORTLAND, OR   CLOUDY    60  50  69 S10       29.96F
6HR MIN TEMP:  57; 6HR MAX TEMP:  62;

$$

WAZ021-516-517-220100-
WASHINGTON COAST

CITY           SKY/WX    TMP DP  RH WIND       PRES   REMARKS
FORKS          LGT RAIN  58  57  97 S14G33    29.73F FOG
6HR MIN TEMP:  56; 6HR MAX TEMP:  58; 6HR PCP:  0.58;

HOQUIAM        LGT RAIN  60  55  83 SE22G33   29.84S
6HR MIN TEMP:  57; 6HR MAX TEMP:  61; 6HR PCP:  0.01;

ASTORIA, OR    CLOUDY    61  53  75 S14G25    29.86F
6HR MIN TEMP:  58; 6HR MAX TEMP:  62; 6HR PCP: TRACE;

$$

WAZ019-023-024-040-518-519-220100-
CASCADE MOUNTAINS AND COLUMBIA GORGE

CITY           SKY/WX    TMP DP  RH WIND       PRES   REMARKS
STAMPEDE PASS  NOT AVBL
TROUTDALE, OR  CLOUDY    60  50  69 E3        29.96F
6HR MIN TEMP:  58; 6HR MAX TEMP:  63; 6HR PCP:  0.02;

THE DALLES, OR MOSUNNY   62  46  55 NW8       29.95S
6HR MIN TEMP:  57; 6HR MAX TEMP:  66;

$$

WAZ026-027-041>044-520-521-220100-
EAST SLOPES

CITY           SKY/WX    TMP DP  RH WIND       PRES   REMARKS
OMAK           PTCLDY    61  45  55 SE14      29.87S
6HR MIN TEMP:  56; 6HR MAX TEMP:  63;

WENATCHEE      CLOUDY    64  36  35 CALM      29.88S
6HR MIN TEMP:  53; 6HR MAX TEMP:  66;

ELLENSBURG     MOCLDY    62  43  49 NW5       29.90F
6HR MIN TEMP:  49; 6HR MAX TEMP:  65; 6HR PCP: TRACE;

YAKIMA         CLEAR     62  42  47 SW15G24   29.91S
6HR MIN TEMP:  52; 6HR MAX TEMP:  67; 6HR PCP: TRACE;

$$

WAZ028-034-035-220100-
COLUMBIA BASIN

CITY           SKY/WX    TMP DP  RH WIND       PRES   REMARKS
EPHRATA        PTCLDY    63  40  42 SW15      29.90S
6HR MIN TEMP:  50; 6HR MAX TEMP:  66;

MOSES LAKE     CLEAR     64  43  46 S8        29.92R
6HR MIN TEMP:  57; 6HR MAX TEMP:  65;

PASCO          PTCLDY    65  44  46 SW13      29.96R
6HR MIN TEMP:  60; 6HR MAX TEMP:  67;

HERMISTON, OR  CLEAR     64  40  41 W8        29.95F
6HR MIN TEMP:  59; 6HR MAX TEMP:  67;

$$

WAZ036>038-220100-
NORTHEAST WASHINGTON

CITY           SKY/WX    TMP DP  RH WIND       PRES   REMARKS
SPOKANE GEIGER PTCLDY    56  42  59 SW12      29.94S
6HR MIN TEMP:  49; 6HR MAX TEMP:  59;

SPOKANE FELTS  MOCLDY    58  41  53 SW13      29.95R
6HR MIN TEMP:  51; 6HR MAX TEMP:  62;

FAIRCHILD AFB  PTCLDY    54  42  65 S10       29.95R
6HR MIN TEMP:  48; 6HR MAX TEMP:  58;

COEURDALENE,ID MOCLDY    57  41  54 SW16      29.94R
6HR MIN TEMP:  50; 6HR MAX TEMP:  57; 6HR PCP:  0.01;

DEER PARK      MOCLDY    56  41  57 SW12      29.94R
6HR MIN TEMP:  49; 6HR MAX TEMP:  58;

$$

WAZ029>033-220100-
SOUTHEAST WASHINGTON

CITY           SKY/WX    TMP DP  RH WIND       PRES   REMARKS
PULLMAN        MOCLDY    55  38  52 SW14      30.00R
6HR MIN TEMP:  51; 6HR MAX TEMP:  58;

LEWISTON, ID   PTCLDY    61  43  51 CALM      29.96S
6HR MIN TEMP:  57; 6HR MAX TEMP:  63;

WALLA WALLA    CLEAR     63  42  46 SW12      29.98S
6HR MIN TEMP:  57; 6HR MAX TEMP:  64;

PENDLETON, OR  CLEAR     62  40  44 W9        29.96F
6HR MIN TEMP:  57; 6HR MAX TEMP:  63;

$$



USA.gov is the U.S. government's official web portal to all federal, state and local government web resources and services.